Okean 3 Rocket - Orbit

View from above orbital plane
View from above orbital plane
View from above satellite
View from above satellite

Ground track
Ground track

The orbit data is extracted from the following two-line orbital elements,

1 21398U 91039B   13168.51501185  .00000137  00000-0  15520-4 0  4588
2 21398 082.5231 145.2288 0020205 288.6900 207.3540 14.78868306187950
Epoch (UTC): 17 June 2013 12:21:37
Eccentricity: 0.0020205
inclination: 82.5231°
perigee height: 619 km
apogee height: 647 km
right ascension of ascending node: 145.2288°
argument of perigee: 288.6900°
revolutions per day: 14.78868306
mean anomaly at epoch: 207.3540°
orbit number at epoch: 18795

The dashed part of the orbit path shows where the satellite is in the earth's shadow,  

Developed and maintained by Chris Peat, Heavens-Above GmbH. Please read the updated FAQ before sending e-mail. Imprint. DLR